Theta_e
339 339 340 341 340 340 341 341 340 340 339 338 338 336 336 336 335 335 335 335 335 335 334 334 334 333 333 333 333 334 334 333 333 335 336 336 335 335 334 334 333 333 333 332 332 331 331 332 333 332 332 332 332 332 330 330 331 331 331 330 330 329 328 328 328 328 328 327 326 326 326 326 326 326 327 328 329 330 329 328 328 328 328 328 329
338 338 339 340 340 340 340 340 339 339 338 337 337 336 335 335 334 335 335 335 335 334 334 334 333 332 331 332 333 333 334 334 335 336 336 335 335 335 334 333 334 334 333 333 332 332 331 332 332 332 332 332 331 331 330 331 331 331 331 330 329 328 328 328 328 328 328 327 326 323 322 323 325 327 329 330 330 329 328 328 329 329 328 328 329
337 338 339 339 340 340 340 340 339 338 337 336 335 335 335 334 333 334 335 335 335 334 334 334 333 332 332 333 333 334 335 336 336 336 336 335 335 335 334 333 334 333 332 332 332 332 332 332 332 332 332 331 331 331 331 332 331 331 330 329 329 329 329 328 328 327 327 327 326 324 322 321 321 324 328 330 329 326 324 326 329 329 327 326 327
336 337 337 338 339 339 339 339 338 337 336 335 335 334 333 332 332 333 334 334 334 335 335 334 333 333 334 335 335 335 336 336 336 336 336 335 335 335 334 334 333 332 331 331 332 332 332 332 332 332 331 331 331 332 332 331 331 330 329 328 328 328 328 328 327 327 326 325 325 324 323 322 322 321 322 324 325 323 321 323 327 327 324 323 323
336 336 337 338 339 339 339 338 338 337 335 334 334 333 331 330 332 333 334 335 335 335 335 334 334 335 335 336 337 336 336 336 335 336 335 335 335 334 334 333 333 332 332 332 332 332 332 332 332 332 331 331 331 331 331 331 329 328 326 325 325 325 326 326 325 324 323 323 323 324 323 322 322 321 319 321 322 322 322 322 322 322 321 320 319
336 336 336 338 339 339 338 338 337 336 335 334 333 332 331 330 332 333 334 335 336 335 335 336 336 336 336 336 336 336 336 336 335 335 335 335 334 333 333 333 332 333 333 333 333 332 332 332 331 331 331 330 330 329 329 329 328 327 325 324 322 321 321 320 320 320 320 322 322 323 322 321 321 320 320 321 320 320 321 320 319 318 317 315 313
336 336 336 338 338 338 338 337 337 336 335 334 333 333 332 331 332 332 334 336 336 336 336 336 336 336 336 336 336 335 335 335 335 334 334 334 334 333 333 332 332 332 333 333 333 332 331 331 330 330 330 329 328 327 326 326 325 325 323 320 318 316 316 315 316 316 318 319 319 320 321 321 321 320 319 319 318 317 317 316 315 313 310 308 306
336 336 336 337 337 338 337 337 337 336 335 334 333 333 333 332 332 332 334 335 336 336 336 335 335 336 336 335 335 335 334 334 334 334 333 333 333 333 332 332 332 332 332 332 332 331 330 330 329 329 328 327 326 325 323 323 322 321 318 316 315 314 314 314 313 313 314 314 314 315 316 317 317 317 317 316 315 315 313 310 309 306 303 302 301
337 337 336 336 337 337 338 337 337 336 335 334 334 334 334 334 333 334 335 335 335 336 336 335 335 336 335 335 335 335 335 333 333 333 332 332 332 332 332 332 332 332 331 331 330 330 329 329 328 327 326 325 323 321 320 319 318 316 315 314 314 313 312 312 311 310 310 310 310 310 311 311 312 313 314 313 312 310 307 304 303 302 302 300 299
338 337 337 336 336 337 337 337 336 336 335 335 335 335 335 335 334 335 336 335 333 334 335 335 335 336 335 335 335 335 335 333 333 332 331 332 332 332 332 332 332 331 331 330 330 329 328 327 326 325 324 322 319 318 316 315 315 314 313 312 312 311 310 310 309 308 307 307 307 307 307 307 307 307 306 305 303 302 301 300 299 300 301 301 299
338 337 336 336 336 336 336 336 336 336 336 335 336 336 335 335 335 335 335 335 334 334 334 334 335 336 336 335 335 334 334 333 332 331 331 331 330 331 332 332 331 330 330 330 329 328 326 325 324 322 321 318 316 315 314 314 313 312 311 310 309 309 308 307 306 305 305 304 304 303 303 302 301 300 299 298 298 298 298 298 298 298 299 300 299
337 337 337 336 336 335 335 335 335 336 336 336 336 335 334 335 335 335 335 335 334 334 334 334 335 336 335 335 335 334 333 333 332 332 331 331 330 331 331 331 330 329 328 328 327 325 323 322 321 319 317 315 315 314 313 312 311 310 309 308 307 307 305 304 303 303 302 302 302 301 300 299 298 298 298 298 298 298 298 298 297 298 298 299 298
337 337 337 336 335 335 335 335 335 335 335 335 336 334 334 335 335 335 335 335 335 335 334 334 335 336 335 335 335 334 333 333 332 332 331 331 331 331 330 329 328 328 327 326 324 322 321 319 317 316 315 314 313 312 311 310 309 308 307 306 305 304 303 302 301 301 300 300 300 300 298 297 297 298 298 298 298 297 297 297 297 297 298 298 298
337 337 337 337 335 335 335 335 335 334 334 334 335 335 335 335 336 335 335 334 335 335 334 334 335 336 335 335 334 334 333 333 332 332 331 331 331 330 329 328 327 326 324 323 321 319 317 316 315 314 313 312 311 310 309 308 307 306 305 303 302 301 300 300 299 300 299 299 298 298 297 297 298 298 297 297 297 297 297 297 297 297 298 298 298
337 337 337 336 335 336 335 335 335 334 334 334 335 335 335 335 336 335 334 334 334 334 335 335 335 334 334 334 334 334 334 333 332 332 331 331 330 329 328 326 325 324 323 321 318 316 315 314 313 312 312 310 309 308 307 306 304 303 302 301 300 300 300 299 299 298 298 298 297 297 297 297 297 297 297 297 297 297 297 297 297 298 298 298 298
336 336 336 335 335 336 335 336 335 334 334 334 334 334 334 334 335 335 334 333 333 334 335 334 333 333 333 333 333 334 333 333 332 331 330 329 328 327 326 324 323 323 322 319 316 314 313 312 311 311 310 308 307 306 304 303 302 301 300 299 299 299 299 298 298 298 297 297 297 297 297 297 297 297 297 297 297 297 297 297 297 297 298 298 298
336 336 335 334 334 335 336 335 334 334 335 334 334 335 335 334 333 333 334 333 333 334 334 334 333 332 333 333 333 333 333 332 331 330 329 328 326 325 324 323 322 322 320 316 314 312 311 310 310 309 308 306 305 303 302 301 299 299 299 298 299 299 298 297 297 297 297 297 297 297 297 297 297 297 297 297 297 297 297 297 298 298 298 297 298
335 335 334 334 334 335 335 335 335 335 334 334 334 335 335 333 332 332 333 333 333 333 333 333 332 332 332 332 332 332 331 330 329 328 328 326 325 323 322 322 321 320 317 314 312 311 310 309 308 307 305 304 302 300 299 299 298 298 298 298 298 298 297 297 297 297 297 296 297 297 297 297 297 297 297 297 297 297 297 297 297 297 298 297 296
333 333 334 334 334 334 335 335 335 334 334 334 335 335 333 331 331 331 332 332 331 331 331 331 332 332 331 331 331 330 330 329 328 327 326 325 324 323 321 321 320 318 314 312 311 310 309 308 306 304 302 300 299 298 298 298 298 298 297 297 298 297 297 297 296 296 296 296 296 296 296 296 296 296 297 297 297 297 297 297 297 297 297 297 296
334 333 334 334 335 334 334 334 334 334 334 334 333 332 331 331 331 331 332 331 330 330 330 331 331 331 331 330 330 329 328 327 327 326 325 324 323 322 321 320 319 316 313 311 309 309 307 305 303 301 299 298 297 297 298 298 297 297 297 297 297 297 296 296 296 296 296 296 296 296 296 296 296 296 297 297 297 297 297 297 297 297 297 297 296
334 334 334 334 335 333 333 333 333 334 334 333 331 331 331 332 331 332 331 330 330 330 331 331 331 330 330 329 328 327 326 326 325 324 324 323 322 321 320 319 317 314 311 309 308 306 305 302 300 298 297 297 297 297 297 297 297 297 297 297 296 296 296 296 296 296 296 296 296 296 296 296 296 296 296 297 297 297 297 297 297 297 296 296 296
334 334 334 334 334 333 332 333 333 333 334 332 331 331 331 331 331 331 330 330 329 329 329 329 329 328 328 327 327 326 325 324 324 323 323 322 321 320 319 317 315 313 310 307 305 303 301 299 298 297 297 296 297 297 297 297 297 297 297 297 296 296 296 296 296 296 296 296 296 296 296 296 296 296 296 297 297 297 297 297 296 296 296 296 296
333 333 333 333 333 333 332 333 333 333 333 331 331 331 331 330 330 329 329 328 328 327 327 326 325 325 325 324 324 323 323 323 322 322 321 320 319 318 316 314 312 310 307 305 302 300 298 297 297 297 296 296 297 297 297 297 297 298 297 297 296 296 296 296 296 296 295 295 295 295 296 296 296 296 296 296 296 296 296 296 296 296 296 296 296
333 332 332 332 332 332 332 332 332 333 332 331 331 330 329 329 328 328 327 325 324 324 323 323 322 321 321 321 321 321 321 321 320 320 319 318 317 315 313 312 310 307 304 302 299 297 297 297 296 296 296 296 297 297 297 297 297 298 297 296 296 296 296 296 295 295 295 295 295 295 295 295 296 296 296 296 296 296 296 295 295 295 295 295 295
332 331 332 331 331 332 331 331 332 332 332 331 330 329 328 328 327 326 324 323 321 320 320 320 319 318 318 318 319 318 318 317 317 316 316 315 314 313 311 310 307 304 301 299 297 297 297 296 296 296 296 296 297 297 297 297 297 297 296 296 296 296 295 295 295 295 295 295 295 295 295 295 296 296 296 295 295 295 295 295 295 295 295 294 294
332 331 332 330 331 331 331 331 331 331 331 330 330 329 327 327 326 325 323 321 320 319 318 318 317 317 317 316 316 315 314 314 314 314 313 313 312 311 310 307 304 302 299 297 297 296 296 296 296 296 296 296 297 297 297 297 297 296 296 296 296 295 295 295 295 295 295 294 294 294 295 295 295 295 295 295 295 295 295 295 295 295 294 294 294
332 331 331 330 330 330 330 330 330 330 330 329 329 328 327 326 325 323 322 320 319 318 316 316 316 316 315 314 313 313 312 313 312 312 312 311 310 309 307 304 302 299 297 296 296 296 296 296 296 296 296 296 297 297 297 297 297 296 296 296 296 295 295 295 295 295 295 295 294 294 295 295 295 295 295 295 295 295 295 295 295 295 295 294 294
331 331 331 330 330 330 330 329 329 329 330 329 328 327 327 326 325 323 321 319 318 317 315 314 314 314 313 313 312 312 312 312 311 311 310 309 308 307 304 302 299 297 296 296 296 296 296 295 295 296 296 296 296 296 296 296 296 296 296 295 295 295 295 295 295 296 296 295 294 294 294 295 295 295 295 295 295 295 295 295 295 295 295 294 294
331 330 331 330 330 330 329 329 328 328 328 328 327 327 326 326 325 323 321 319 318 316 314 313 313 313 313 312 312 312 311 311 311 310 309 308 307 305 302 300 299 296 296 296 295 295 295 295 296 295 296 296 296 296 296 296 296 296 295 295 295 295 295 295 296 296 296 295 294 294 294 295 295 295 295 295 295 295 295 295 295 295 294 294 294
331 330 330 330 329 329 329 328 327 327 327 327 327 326 326 326 324 323 321 319 317 315 314 313 312 312 312 312 311 311 310 310 310 309 308 306 304 303 301 300 298 296 295 295 295 295 295 295 295 295 295 295 295 295 295 295 296 296 295 296 296 295 295 296 297 297 296 295 294 294 294 295 295 295 294 295 295 295 295 295 295 295 294 294 294
331 330 330 329 329 329 329 328 327 327 327 327 327 326 326 325 324 323 321 319 317 315 313 312 312 312 312 312 311 311 310 308 308 307 306 305 303 302 302 300 297 295 295 295 295 295 295 295 295 295 295 295 295 295 295 295 295 295 296 296 296 295 296 297 297 297 296 296 295 294 294 295 295 295 294 294 295 295 295 295 295 294 294 294 294
330 330 330 329 328 328 328 328 327 327 327 327 326 326 326 325 324 322 320 319 317 314 313 312 312 311 311 311 311 310 309 308 307 306 306 305 304 303 302 299 297 295 295 295 295 295 295 295 295 295 295 295 295 295 295 295 295 295 296 296 296 296 296 297 297 297 296 296 295 294 294 295 295 295 295 294 295 294 294 294 294 294 294 294 293
331 330 330 329 329 328 328 328 328 328 328 327 327 327 326 326 325 322 320 319 316 314 313 312 311 311 311 311 310 310 309 308 307 307 306 305 304 303 301 298 295 295 295 295 295 295 295 295 295 295 295 295 295 295 295 295 295 295 296 296 297 296 296 296 296 296 296 295 294 294 295 295 295 295 295 295 295 294 294 294 293 293 293 293 292
331 330 330 330 329 328 328 328 328 329 329 328 327 327 327 326 325 323 321 319 317 315 314 312 311 311 311 310 310 309 308 308 307 306 305 304 303 301 299 297 296 295 295 295 295 295 295 295 295 295 295 295 295 295 295 295 295 295 295 296 297 296 296 296 296 296 295 295 294 294 295 295 295 295 295 295 294 294 294 293 293 293 292 292 292
330 330 330 329 328 327 327 327 328 328 328 328 327 326 326 326 325 323 321 318 317 316 314 311 310 311 310 310 309 308 307 307 306 305 304 303 303 301 299 299 297 295 294 295 295 295 295 295 295 295 295 295 295 295 295 295 294 294 295 296 296 296 295 295 295 296 295 294 294 294 294 294 294 295 295 295 294 294 293 293 292 292 292 292 292
331 330 330 329 328 328 327 327 327 327 327 327 326 326 325 324 323 321 319 317 318 318 314 311 310 310 310 309 308 307 306 306 306 305 304 303 303 301 300 300 298 295 294 295 294 295 295 295 295 295 295 295 295 295 294 294 294 294 294 295 295 295 295 295 295 295 294 294 294 294 294 294 294 294 295 294 294 293 292 292 292 292 292 292 292
331 330 330 330 329 328 328 327 327 327 327 327 326 325 324 323 321 319 318 317 318 318 315 311 310 310 310 309 307 306 306 305 305 304 303 303 303 302 300 300 298 295 294 294 294 295 295 295 295 295 294 295 295 295 294 294 294 294 294 294 294 294 294 295 294 294 294 294 294 294 294 293 293 294 294 293 293 292 292 292 292 292 292 292 292
330 330 330 329 329 328 327 327 326 326 326 326 326 325 324 322 321 319 317 317 316 316 315 312 311 310 309 308 307 307 306 306 305 303 302 303 303 301 300 300 298 295 294 294 294 294 295 295 294 294 294 294 295 294 294 294 293 293 293 293 293 294 294 294 294 293 294 294 294 293 293 293 293 293 293 292 292 292 292 292 292 292 292 292 292
330 330 329 329 329 328 327 326 326 326 326 325 325 324 323 322 321 319 318 316 316 315 314 313 311 310 308 306 307 307 306 305 304 302 301 302 302 301 299 299 298 296 294 294 294 294 295 294 294 294 294 294 294 294 294 294 293 293 293 293 293 293 294 293 293 293 294 294 293 293 293 292 292 292 292 292 292 292 292 292 292 292 292 292 292
330 329 329 329 329 328 327 326 325 325 326 325 323 323 323 322 321 320 318 317 316 315 314 312 310 310 307 305 306 306 305 304 303 301 300 300 300 300 299 298 297 296 294 294 294 294 294 294 294 294 294 294 294 294 294 293 293 293 293 293 293 293 293 293 293 293 293 293 293 293 292 292 292 292 292 292 292 292 292 292 292 292 292 292 291
331 330 329 328 328 327 327 326 325 325 325 323 322 322 322 320 319 319 318 317 316 315 313 311 310 309 306 304 304 304 303 302 302 301 301 300 299 299 298 297 296 295 294 294 294 294 294 294 294 294 294 294 294 293 293 293 293 293 293 293 293 293 293 293 293 293 293 293 293 293 292 292 292 292 292 292 292 292 292 291 291 291 291 291 291
330 330 329 328 327 327 326 325 325 325 324 323 322 322 321 319 319 319 318 317 316 314 312 311 310 308 305 303 303 303 302 302 301 301 300 299 298 297 296 295 295 294 293 293 294 293 293 294 294 294 293 293 293 293 293 293 293 293 293 293 293 293 293 293 293 293 293 293 293 292 292 292 291 291 291 291 291 291 291 291 291 291 291 291 291
330 329 328 328 327 326 325 324 324 324 323 322 322 322 320 319 319 319 317 316 315 314 312 310 310 307 303 301 302 303 303 302 300 299 298 297 296 295 294 294 294 294 293 293 293 293 293 293 294 294 293 293 293 293 293 293 293 293 293 292 292 293 293 293 293 293 293 292 292 292 292 291 291 291 291 291 291 291 291 290 290 290 291 291 291
329 329 328 327 327 326 325 324 323 323 322 322 322 322 320 319 319 319 317 315 315 313 311 310 309 306 302 301 303 304 303 301 298 296 296 296 295 294 293 293 293 293 293 293 293 293 293 293 294 294 293 293 293 293 293 293 293 293 292 292 293 293 293 293 292 292 292 292 292 292 292 291 291 291 291 291 291 291 291 291 291 291 291 291 291
329 329 328 327 326 326 325 323 323 322 322 322 322 321 320 319 319 318 317 316 314 312 311 310 308 304 301 302 304 304 303 299 296 296 296 295 294 293 293 293 293 293 293 293 293 293 293 293 294 294 293 293 293 293 293 293 293 293 292 292 293 293 293 293 292 292 292 292 292 292 292 291 291 291 291 291 291 291 291 291 291 291 291 291 291
329 328 327 326 325 325 324 323 322 321 321 321 321 321 320 320 319 318 317 315 313 312 310 309 306 303 302 303 304 303 301 297 296 296 296 295 294 294 293 293 293 293 293 293 293 294 293 293 293 293 293 293 293 293 293 293 293 293 293 292 293 293 293 293 293 293 293 293 292 292 292 292 292 291 291 291 292 292 292 292 292 292 292 291 291
328 327 326 326 325 324 323 323 322 321 320 320 320 320 319 319 319 318 316 315 313 311 310 308 305 303 303 303 303 302 299 297 298 297 296 295 295 295 294 294 294 294 295 295 295 295 294 294 293 293 293 293 293 293 293 293 293 293 293 293 293 293 293 293 293 293 293 293 293 292 292 292 292 292 292 292 292 293 293 293 293 293 293 292 291
327 327 326 325 324 323 322 321 321 320 319 319 320 319 318 317 318 317 316 314 312 311 310 307 304 303 303 303 301 299 298 298 298 297 296 296 297 296 295 295 295 296 296 297 297 296 295 295 294 293 293 293 293 293 293 293 293 293 293 293 293 293 293 293 294 294 294 294 293 293 293 293 293 293 293 293 293 293 293 293 294 294 293 293 293
327 326 325 325 324 323 322 321 320 320 319 319 319 319 318 317 317 316 316 314 312 311 309 306 304 304 303 301 299 299 298 298 297 297 297 298 299 298 297 297 297 297 297 297 297 297 296 296 295 294 293 293 293 293 293 293 293 293 293 293 293 293 294 294 294 294 294 294 294 293 293 293 293 293 293 293 293 294 294 294 294 294 294 294 293
326 325 324 324 323 323 322 321 320 319 319 319 319 318 318 317 316 315 315 314 312 310 308 305 305 304 302 300 299 299 299 298 297 298 299 300 300 299 298 298 298 298 298 298 298 298 297 297 296 295 294 293 293 293 293 292 292 293 293 294 294 294 294 294 294 294 294 294 294 294 294 294 293 293 293 293 294 294 294 294 294 294 294 294 294
326 325 324 323 322 322 321 320 320 319 319 319 318 317 317 316 315 314 314 313 312 310 307 305 305 304 302 300 300 300 299 298 298 299 300 300 300 300 300 300 300 300 299 299 299 299 299 298 297 296 295 294 293 293 293 292 292 293 294 294 294 295 295 295 295 295 294 294 294 294 294 294 293 293 293 293 294 294 294 294 294 294 294 294 294
Wind_Speed
25 28 30 30 31 32 33 34 35 36 36 36 35 32 30 30 30 29 27 27 25 24 23 23 22 22 22 21 21 21 19 17 17 16 16 15 14 14 12 11 11 10 9 8 7 7 7 8 8 8 8 8 8 9 10 10 11 10 10 11 13 14 14 14 14 14 14 13 12 11 11 12 11 11 10 10 12 12 13 13 12 12 13 13 14
26 29 31 32 33 35 36 36 36 36 35 34 32 30 30 30 29 28 28 28 27 25 24 23 22 21 22 22 22 21 19 18 19 17 16 15 15 14 12 12 11 10 8 7 6 6 7 7 7 7 8 9 9 10 10 10 10 10 11 12 14 14 15 15 15 15 15 16 15 14 12 11 9 9 10 9 10 12 14 14 13 13 14 15 15
29 32 33 34 35 36 36 36 36 35 33 31 30 29 30 31 30 29 29 29 28 26 25 23 22 21 21 21 22 21 19 19 19 17 16 15 14 13 11 11 10 9 8 7 7 7 7 6 7 8 9 10 11 11 10 11 11 12 13 13 14 14 15 15 16 16 16 17 15 14 14 14 12 9 9 9 11 14 16 15 14 14 15 16 16
31 34 35 35 36 37 37 36 35 33 31 30 30 30 30 31 31 31 31 30 29 27 25 24 23 22 21 21 21 20 20 19 18 16 15 15 13 12 10 9 9 8 8 7 6 6 5 6 7 9 10 11 10 10 11 12 14 14 14 14 14 15 15 16 16 17 17 16 13 12 13 14 11 9 10 10 12 17 17 15 16 16 18 19 19
33 35 36 37 38 38 37 36 34 32 30 30 30 30 30 31 32 32 31 30 28 27 25 24 23 23 22 21 20 20 19 19 18 17 16 15 13 12 10 9 9 8 7 6 4 4 6 7 8 10 11 11 11 12 13 14 15 16 16 16 16 17 17 16 16 16 16 15 13 11 10 9 10 15 18 13 9 13 16 16 17 18 21 23 23
33 35 37 38 39 38 37 36 34 32 32 31 31 30 30 30 31 31 31 29 27 26 25 24 23 23 22 22 22 22 21 19 18 18 16 14 13 12 11 10 9 9 7 6 6 7 8 9 10 11 12 12 13 14 15 15 16 17 17 17 17 17 17 16 15 14 13 12 12 11 8 9 15 20 19 16 15 16 16 17 19 20 23 24 23
33 33 35 37 38 39 39 37 35 33 32 31 31 31 30 29 30 30 30 28 27 27 26 25 23 22 22 22 23 23 22 20 18 17 16 14 13 13 12 11 10 9 8 7 8 8 9 10 11 12 13 14 14 14 15 16 16 17 17 17 16 15 13 12 11 11 10 9 9 9 9 10 15 18 17 19 22 21 20 21 23 24 23 23 22
34 34 35 37 39 40 39 37 35 34 33 32 31 31 29 29 28 28 28 27 26 26 25 23 22 22 22 22 22 21 21 20 18 17 15 14 14 13 12 11 10 9 8 9 9 9 10 12 12 13 14 14 14 14 15 16 16 17 16 15 14 12 11 10 10 9 9 9 9 9 10 11 13 14 14 16 18 23 28 27 26 25 23 22 21
35 35 36 36 37 38 37 36 34 34 33 32 31 30 29 27 26 26 25 23 22 22 21 20 21 21 21 21 21 21 20 19 18 16 15 14 14 13 12 11 10 9 9 10 10 12 13 13 13 13 13 13 13 13 14 14 14 14 13 12 12 11 11 11 11 11 10 10 9 9 9 10 11 12 12 14 15 21 26 27 27 26 24 23 23
33 35 35 34 35 35 35 34 34 34 32 31 29 28 28 26 25 25 23 20 19 19 19 18 19 19 20 21 21 21 21 20 19 17 16 16 15 14 13 12 11 11 11 12 13 14 14 13 12 12 11 11 11 12 12 12 11 11 11 11 11 11 11 12 12 12 11 10 9 9 9 10 10 11 12 13 13 15 18 21 24 25 25 25 26
32 33 32 32 32 32 33 33 33 33 31 29 28 27 26 25 24 23 21 19 19 20 19 18 17 17 18 19 20 21 21 20 20 19 18 17 16 15 14 13 12 13 13 13 14 14 13 12 10 9 9 9 9 9 9 9 10 10 10 10 10 11 11 11 11 11 11 11 11 12 13 13 13 13 14 14 15 15 17 20 21 22 23 24 25
31 32 31 31 31 30 31 31 32 32 30 28 28 26 24 23 22 21 20 20 20 21 20 19 19 18 18 18 19 20 20 20 19 19 18 17 16 16 15 14 13 13 13 13 13 12 10 9 8 7 7 7 7 7 8 8 9 9 9 9 9 10 10 10 10 10 11 11 13 14 15 15 15 15 15 15 16 16 17 19 21 22 23 23 24
30 31 32 31 30 30 30 30 30 30 28 28 27 24 23 22 21 21 21 21 21 21 20 20 20 19 19 18 19 19 20 19 19 18 17 16 15 14 13 13 13 13 13 12 10 8 7 6 5 5 5 5 6 6 7 7 7 7 8 8 8 9 9 9 10 10 11 12 14 14 14 14 14 14 14 14 15 16 18 19 20 21 23 23 23
31 30 31 31 30 29 29 29 29 29 28 27 26 24 23 22 22 21 21 21 21 21 20 20 20 20 19 19 20 20 20 19 17 16 16 15 14 13 13 14 13 12 11 8 6 5 4 3 3 3 4 5 5 5 5 6 6 7 7 8 8 8 8 9 10 10 11 12 13 13 13 13 13 14 15 16 17 18 20 23 24 24 24 23 23
31 29 29 30 30 29 29 29 29 28 27 26 25 24 23 22 20 20 21 22 21 21 21 21 21 20 19 19 20 20 19 18 17 16 15 15 14 14 14 13 12 11 8 5 4 3 2 1 1 2 3 4 4 4 5 5 6 7 7 7 8 8 8 9 10 10 11 12 12 13 13 13 14 15 16 17 19 20 21 23 25 26 27 27 27
32 30 29 29 29 29 30 30 28 27 26 25 24 23 24 23 21 20 21 22 22 22 23 23 22 21 20 20 20 20 19 18 17 17 16 15 14 14 13 12 11 9 6 4 3 2 1 0 1 2 3 4 4 5 5 5 6 6 6 7 7 7 8 9 9 10 10 11 12 12 13 14 15 16 17 17 19 20 20 21 23 24 26 27 29
32 31 30 31 30 29 30 29 28 28 27 25 25 24 24 25 23 22 22 22 22 23 23 23 22 22 22 22 21 20 19 18 17 16 16 14 14 13 12 12 11 8 5 4 3 2 1 0 1 3 3 4 4 5 5 5 5 5 6 6 7 8 8 8 9 9 10 11 12 13 14 15 16 16 17 18 18 18 19 21 22 22 22 24 25
31 30 30 33 33 31 31 30 29 28 27 26 26 25 24 23 24 24 23 23 23 23 22 22 22 22 23 23 21 20 19 17 16 15 14 14 13 14 14 13 11 7 4 4 3 2 1 1 2 3 3 4 4 4 4 4 4 5 5 6 8 8 8 7 8 9 10 11 12 13 14 15 16 17 17 17 17 18 20 21 21 21 22 23 22
28 30 31 33 35 34 31 30 29 28 28 27 27 24 22 22 22 22 23 23 22 21 20 20 21 22 22 21 20 19 18 17 16 15 14 13 14 15 15 13 10 6 4 3 2 2 1 1 2 2 2 3 3 3 3 3 4 4 5 6 8 7 6 7 9 10 11 11 12 13 14 15 16 16 16 16 17 19 20 21 21 23 24 25 24
30 32 34 34 36 35 32 30 30 31 30 28 26 23 22 22 22 22 22 21 20 20 20 20 21 21 21 21 20 18 17 17 16 15 14 14 15 16 15 13 9 6 5 3 3 3 3 2 1 1 2 2 3 2 2 2 3 3 4 6 8 6 6 8 10 10 11 12 13 13 14 14 15 15 15 17 19 20 21 22 23 25 25 25 25
32 32 35 35 34 33 32 31 32 33 32 28 25 24 24 24 24 22 21 21 20 21 21 21 21 21 21 20 19 19 17 17 16 15 16 17 17 16 15 12 9 7 5 5 5 4 3 2 0 0 1 2 2 2 2 2 3 3 5 7 7 6 7 9 10 10 12 12 12 12 13 15 15 16 17 18 20 21 23 24 25 25 24 24 25
35 32 35 37 35 34 34 34 34 34 32 28 27 26 26 26 24 22 21 21 21 22 22 22 22 21 20 20 19 19 18 18 18 18 18 18 18 16 14 10 9 8 7 7 6 4 3 2 1 1 2 2 2 2 2 2 3 4 5 7 7 7 7 9 9 10 11 11 11 12 14 16 17 17 18 19 20 22 23 24 24 23 23 23 23
38 33 32 35 37 36 36 36 35 34 32 30 29 28 28 26 24 22 21 21 21 22 22 23 22 22 21 21 20 20 20 20 20 20 20 19 18 15 12 11 9 8 8 8 6 4 3 3 3 3 3 3 3 2 2 2 3 4 5 6 7 7 7 8 9 10 11 11 12 13 15 16 17 17 18 19 20 21 22 22 23 22 21 21 22
36 35 31 33 37 37 37 37 36 34 32 31 30 29 28 26 24 22 21 21 21 21 22 22 23 22 22 21 21 20 20 20 21 21 20 18 16 14 12 10 8 8 8 7 6 5 4 4 4 4 4 4 3 3 2 2 3 4 5 5 6 7 7 8 9 10 11 12 13 15 16 16 16 17 18 19 20 21 21 21 21 21 21 22 23
35 36 34 34 37 38 38 38 37 36 34 32 30 29 27 25 23 22 20 20 19 19 20 21 21 22 21 20 19 19 19 19 19 19 17 16 15 14 12 9 7 7 7 7 7 6 6 6 5 5 5 5 4 3 2 2 3 4 5 4 4 5 6 7 9 11 13 15 15 16 16 16 16 17 18 19 19 19 19 19 20 21 22 23 24
36 37 35 35 37 38 38 38 38 36 34 34 32 30 27 24 22 20 19 18 17 17 19 20 20 20 19 18 17 17 17 18 18 18 17 16 15 12 10 8 8 6 6 7 7 7 7 7 6 6 6 5 4 3 2 2 3 4 4 4 4 4 5 7 10 13 15 16 16 16 16 16 16 17 17 17 18 18 18 19 20 21 23 24 25
38 38 37 36 36 37 37 37 37 35 34 34 33 29 26 23 21 19 18 17 16 17 17 18 19 18 17 17 17 18 18 18 17 17 16 15 13 11 9 8 8 7 7 7 8 8 8 7 7 7 6 5 4 3 2 2 3 4 4 4 4 5 6 8 10 13 15 16 17 16 15 15 15 16 16 16 17 17 18 19 20 21 22 24 26
36 38 38 38 37 37 37 37 37 36 35 34 31 28 25 22 20 18 17 17 16 16 17 18 18 18 18 19 19 18 18 17 16 16 15 14 13 11 9 8 7 8 8 8 8 8 8 8 8 7 7 6 5 3 2 2 3 4 4 4 5 5 6 8 10 12 14 16 16 15 14 13 13 13 14 14 15 16 17 18 19 20 22 24 27
36 39 40 40 40 39 39 38 38 37 36 34 31 27 24 23 21 19 18 17 16 15 17 19 19 19 20 19 18 18 17 17 16 16 16 15 13 12 10 9 8 8 9 9 9 8 8 8 8 8 7 6 5 4 3 2 2 4 4 4 4 5 6 8 9 11 13 15 15 14 13 11 10 11 11 12 13 15 17 19 20 21 23 26 29
39 40 42 42 42 41 39 38 37 36 35 33 31 29 25 24 23 21 18 17 16 15 18 20 20 19 19 18 18 17 17 18 18 17 17 16 14 13 11 9 8 9 10 10 10 10 9 8 8 8 7 6 5 4 4 3 2 3 4 5 5 5 6 7 8 10 12 13 14 13 12 9 8 10 11 11 12 13 14 17 20 22 24 27 31
39 40 41 40 40 40 39 38 38 36 35 33 32 30 26 25 24 22 19 18 16 16 18 21 20 19 19 19 18 18 18 19 19 18 17 16 15 13 12 10 9 10 11 11 10 10 10 9 8 7 7 7 6 5 4 3 3 3 4 5 5 5 5 6 7 8 11 12 12 12 10 8 9 11 12 13 13 13 14 17 19 21 24 27 30
39 41 41 40 40 41 41 40 40 38 37 36 34 31 28 26 24 23 21 19 18 18 19 20 20 20 20 20 20 19 20 20 19 18 17 16 15 13 11 10 11 12 12 11 11 10 10 10 9 8 8 7 6 5 5 4 4 3 3 5 5 5 5 5 6 8 10 10 10 9 8 8 9 12 13 14 14 16 18 20 21 23 24 26 28
42 43 43 43 42 42 42 41 41 40 38 36 34 32 29 26 25 25 23 21 20 18 18 19 21 22 22 21 21 21 21 21 20 19 18 17 15 13 11 11 12 13 13 12 11 11 11 10 9 8 8 7 7 6 6 5 4 3 2 3 4 4 4 4 5 7 9 9 8 7 6 7 9 12 13 14 16 19 21 22 23 25 26 26 27
41 42 43 42 41 41 41 41 41 39 37 34 33 32 28 26 26 26 24 23 21 17 16 20 23 24 22 22 21 22 22 22 21 20 19 17 16 14 12 12 13 13 13 13 12 12 11 11 10 9 8 8 8 7 7 5 4 3 2 3 3 3 3 4 5 7 9 8 7 6 6 7 10 12 14 16 18 20 22 24 24 26 27 27 28
40 41 42 41 40 41 41 42 41 40 37 35 34 33 30 29 29 27 27 24 19 16 18 22 24 24 23 22 22 22 22 22 21 20 19 18 16 15 13 13 14 14 13 13 13 12 12 11 10 9 9 8 8 8 7 5 4 3 2 2 2 1 2 3 5 7 8 6 6 7 8 9 11 12 13 16 19 21 22 23 25 26 27 28 29
43 43 43 43 42 42 42 43 42 41 39 37 36 34 33 33 31 29 28 24 18 17 20 22 24 25 24 23 23 24 24 23 22 21 20 18 17 15 13 13 14 14 14 14 13 13 12 12 11 10 9 8 8 8 7 6 4 2 2 2 1 1 1 3 4 6 5 5 7 9 10 10 11 12 13 15 18 21 22 23 25 27 28 29 30
44 43 44 44 43 43 42 42 42 41 40 38 36 36 36 35 32 30 28 24 21 22 22 22 24 25 24 23 25 25 25 24 24 22 20 19 19 17 14 13 14 15 15 14 14 13 12 11 11 10 8 7 7 7 7 6 4 2 1 1 1 0 1 2 3 3 3 5 8 9 9 10 11 11 13 15 18 20 22 24 26 27 29 30 31
42 41 41 42 42 42 42 42 43 42 40 38 38 38 37 35 33 31 29 26 25 25 24 24 26 25 24 24 25 26 25 25 24 22 20 21 20 18 15 13 13 14 15 14 14 14 13 12 11 10 9 7 7 7 7 6 5 3 2 0 0 1 1 2 2 1 3 6 7 8 8 10 11 12 13 16 18 20 22 24 27 28 30 31 32
41 41 41 42 41 41 42 42 42 42 41 40 40 39 37 36 34 32 30 28 28 27 25 25 26 26 25 25 25 25 25 25 24 22 21 21 21 18 16 14 14 14 15 15 15 14 13 12 11 10 9 8 7 7 7 7 6 4 2 2 1 1 1 1 0 1 3 5 6 7 9 10 11 12 14 16 18 20 22 24 26 28 30 32 33
40 40 41 42 42 43 43 43 43 43 42 42 42 39 37 37 35 33 32 31 29 26 25 25 27 26 25 24 24 24 23 23 23 22 21 21 20 19 17 16 16 16 16 16 15 14 13 13 12 11 10 9 8 7 7 6 6 5 3 3 3 2 1 1 2 1 2 3 5 7 9 10 12 13 15 17 19 20 22 23 25 27 30 31 32
40 40 39 41 42 43 44 44 44 43 43 43 41 38 38 38 36 34 33 32 29 26 25 27 27 26 25 24 23 22 22 22 22 22 22 21 20 19 18 17 18 18 18 17 16 15 14 14 13 12 10 9 8 7 7 6 6 5 4 4 3 3 3 3 2 1 1 3 5 7 9 11 12 14 16 18 19 20 21 22 24 25 27 29 30
38 39 39 41 42 42 43 43 43 42 42 41 38 37 39 38 35 34 34 31 28 26 27 28 27 25 24 24 23 22 22 21 22 23 23 22 21 20 19 19 20 20 19 18 17 16 16 15 14 13 12 10 9 8 7 6 6 5 4 4 4 4 3 3 2 1 2 3 5 7 10 11 13 14 16 18 19 20 21 22 22 24 25 26 28
39 39 39 40 41 42 41 41 41 41 41 39 37 38 40 37 35 34 33 31 28 27 28 29 26 24 24 24 24 23 22 21 23 24 24 23 22 21 21 21 22 21 20 19 18 17 17 15 15 14 12 11 9 8 8 7 6 5 4 4 4 4 4 3 2 2 2 4 6 8 10 12 13 14 16 17 19 20 21 21 22 23 24 26 27
39 39 39 40 41 41 41 40 41 41 40 39 38 40 39 37 35 35 33 30 27 27 29 29 26 26 26 25 25 24 22 22 24 24 24 24 24 23 23 24 23 22 21 20 19 18 17 15 14 13 12 11 10 9 7 7 6 5 5 5 5 5 4 3 2 2 3 5 7 8 10 12 13 14 15 16 18 19 21 21 22 23 24 25 27
37 37 38 39 40 41 41 41 41 41 41 40 40 40 39 37 36 35 33 30 28 29 30 29 27 27 27 25 25 25 23 23 25 25 25 25 25 25 25 25 24 23 22 21 19 18 16 15 14 13 12 10 9 8 7 7 6 6 6 6 6 5 4 2 2 2 4 5 7 9 10 12 13 14 14 16 18 19 20 21 22 23 24 26 28
37 37 37 38 40 40 41 41 41 41 41 41 40 39 38 37 36 34 32 30 29 29 29 28 29 29 27 26 26 26 25 26 26 25 24 25 26 25 25 25 25 24 22 21 20 18 17 15 14 12 11 10 9 8 8 7 6 6 6 6 5 5 3 2 1 2 4 5 7 8 10 11 12 13 14 16 18 19 20 20 21 23 24 26 28
36 36 36 38 40 40 41 41 41 41 42 41 39 38 38 37 36 34 32 30 29 29 29 29 30 30 28 27 28 28 28 28 27 25 25 26 26 25 25 26 25 24 23 21 19 18 17 16 14 12 11 10 9 9 8 7 6 6 6 6 5 4 3 2 1 1 3 4 6 8 9 10 12 13 14 15 17 19 20 21 22 23 24 25 27
34 35 36 38 40 40 41 41 41 41 41 39 38 38 38 38 36 34 32 30 29 29 29 31 31 30 28 28 29 30 29 28 27 27 28 28 27 26 25 25 24 23 23 22 20 19 17 15 13 12 11 10 10 9 8 7 6 5 6 6 6 5 4 3 1 1 2 4 6 7 8 9 10 11 13 14 16 18 20 22 22 23 24 24 25
33 34 35 36 38 39 39 39 40 40 39 39 38 38 38 38 37 35 32 30 30 31 30 32 32 29 28 30 31 31 30 29 29 29 29 28 27 25 24 23 22 21 20 18 17 15 14 12 11 10 10 9 9 9 8 7 6 6 6 6 6 5 5 4 2 1 2 4 5 6 7 8 10 11 13 15 17 18 20 22 23 24 24 25 25
30 32 33 35 36 37 37 38 38 38 38 38 38 39 39 39 38 36 32 31 32 32 32 33 32 31 30 32 33 31 30 30 31 31 30 28 26 24 23 22 21 19 17 14 12 9 8 9 10 9 9 9 8 8 8 8 7 7 7 7 7 6 6 4 2 0 1 3 5 6 7 9 10 12 14 16 17 19 20 22 23 24 25 25 26
29 31 32 34 35 35 35 36 36 36 37 37 38 39 39 39 38 35 33 32 33 33 33 34 34 32 32 33 33 31 31 33 33 32 30 28 27 26 24 22 20 18 16 14 12 9 7 7 8 9 10 10 10 10 9 9 9 9 9 9 9 8 7 4 2 1 2 3 4 6 7 9 11 13 14 16 17 19 20 21 22 23 24 25 26
Wind_Direction
193 191 192 192 190 189 189 191 194 194 195 195 195 194 194 193 193 193 194 197 200 200 200 201 202 204 207 208 209 212 217 222 223 221 219 221 220 220 222 225 226 224 225 226 225 227 233 241 246 251 261 270 276 285 294 298 297 300 304 309 313 315 318 320 319 318 315 312 308 300 298 299 295 291 285 279 279 278 286 296 292 288 290 294 300
188 189 192 192 191 190 190 192 195 195 194 195 198 199 197 196 195 195 197 199 203 206 207 208 209 209 208 208 209 212 215 218 218 215 213 216 218 220 221 222 222 222 226 228 227 231 234 239 249 260 272 278 284 290 296 300 301 305 308 313 316 318 321 319 317 315 312 312 311 305 301 296 289 285 276 271 273 275 282 288 285 286 292 296 300
187 189 191 192 192 191 192 193 195 194 194 198 203 204 202 200 199 198 200 203 205 208 211 212 212 210 209 209 209 209 210 212 212 209 210 216 219 219 220 221 222 224 226 228 230 232 236 246 262 278 286 291 294 296 300 303 303 305 309 316 321 323 323 318 316 313 309 311 312 310 309 303 296 282 255 251 271 281 282 280 278 284 294 300 302
187 190 192 193 192 192 193 193 194 194 197 201 202 202 202 201 200 200 202 205 207 208 211 213 212 209 209 210 210 207 206 206 206 206 210 215 216 214 216 217 221 227 229 230 234 242 259 275 284 292 295 295 295 295 298 300 302 308 314 320 324 323 320 316 314 312 310 313 315 315 313 309 305 295 281 274 276 282 285 281 280 287 297 303 306
186 190 193 193 192 193 193 193 194 195 198 201 201 200 199 199 199 201 203 206 209 210 210 212 211 208 207 207 206 203 201 202 204 203 206 210 211 210 208 209 216 224 228 234 251 273 285 291 294 298 298 295 295 297 299 301 305 312 317 320 322 319 317 316 313 312 312 316 320 323 321 312 305 306 310 306 284 283 289 288 289 298 306 310 312
188 190 192 191 191 192 193 194 195 196 199 201 200 200 199 199 200 203 206 209 211 211 210 209 208 206 206 203 201 197 194 197 203 203 203 203 206 210 208 207 214 222 233 251 271 282 289 296 300 303 303 301 302 303 303 305 310 316 320 321 319 316 316 316 316 316 318 320 323 325 322 308 304 310 315 313 305 301 297 295 300 307 311 313 316
188 190 192 191 191 193 194 195 196 197 199 200 201 201 201 202 205 207 209 211 211 211 210 205 202 204 205 203 202 199 193 192 199 202 202 201 204 210 212 214 220 229 244 261 272 281 291 298 302 304 304 304 306 306 308 312 317 320 322 322 322 321 320 321 324 326 327 328 330 323 311 301 303 311 317 315 314 310 305 307 311 314 317 319 321
188 189 192 192 193 194 194 195 196 198 199 200 200 201 203 205 208 211 213 212 210 211 210 201 198 202 203 201 202 203 200 196 196 199 201 204 208 212 218 224 230 237 250 264 274 285 292 295 298 299 300 301 305 310 314 318 322 324 326 328 330 331 332 334 334 334 334 335 336 327 316 309 306 310 315 317 317 310 309 314 316 318 325 330 333
189 189 192 194 196 196 195 195 196 198 200 201 201 202 205 207 209 213 213 211 210 212 211 203 202 202 199 200 201 202 204 201 197 200 202 205 210 216 222 228 237 246 259 272 281 288 292 294 296 296 297 302 308 315 319 323 326 329 331 333 334 335 336 338 338 341 345 345 342 333 322 315 310 309 309 312 315 314 315 321 324 324 327 337 344
190 190 192 194 197 197 196 195 196 199 201 201 202 204 207 209 210 211 210 208 209 212 211 208 207 203 198 201 202 202 204 203 200 201 202 203 209 218 226 233 244 257 268 278 285 291 294 295 297 299 302 308 315 320 323 327 331 333 333 333 335 336 338 342 345 350 354 354 350 341 334 329 325 323 321 322 325 324 323 328 333 331 330 336 341
189 191 192 195 198 197 197 197 197 200 201 201 204 206 207 208 209 208 208 205 205 207 205 204 205 204 201 204 209 209 209 208 205 202 202 205 212 223 233 241 252 265 274 282 288 293 296 298 301 305 308 314 322 327 329 332 332 331 331 334 338 342 347 352 354 358 358 355 355 356 357 358 356 354 351 350 347 343 340 338 339 336 332 335 338
188 190 193 196 197 197 199 199 199 200 201 201 204 206 205 206 205 204 204 202 202 202 199 198 201 204 204 207 213 216 216 214 210 206 206 211 219 228 238 248 261 272 280 286 289 292 297 302 306 308 312 321 329 332 332 330 328 329 331 336 343 348 353 354 354 360 360 359 3 6 9 8 6 7 5 2 358 353 349 344 342 340 338 338 338
185 187 194 197 194 196 199 199 200 200 200 201 202 202 203 204 202 201 203 200 198 198 197 199 201 202 204 207 212 216 218 216 213 210 212 217 226 234 245 257 267 275 282 286 288 293 299 302 305 309 318 329 333 333 329 324 325 330 334 339 345 350 353 353 357 3 4 8 11 10 11 11 10 11 8 3 0 356 351 348 348 346 342 340 340
186 184 190 195 193 194 198 199 200 200 200 202 200 198 200 203 202 202 203 199 196 197 197 200 202 201 204 208 213 215 216 214 213 216 221 227 234 243 254 263 270 277 283 287 288 291 293 291 304 315 324 330 330 330 326 326 331 335 339 343 349 357 360 0 4 9 10 12 13 12 12 13 13 12 7 3 1 359 357 355 352 347 343 343 344
189 186 186 191 193 194 198 200 201 201 201 202 199 197 199 202 203 201 201 198 195 196 198 201 203 203 205 210 214 217 216 214 214 219 227 235 242 250 258 266 274 282 286 289 283 270 264 267 301 318 325 328 333 336 334 336 339 340 346 351 357 7 8 8 12 14 12 13 15 17 16 15 15 13 8 6 5 4 3 1 357 353 349 346 344
189 186 184 188 193 196 198 198 200 200 199 197 197 197 198 201 201 200 204 202 198 198 200 202 205 205 205 210 214 217 216 216 217 221 229 236 243 251 260 269 279 289 289 275 258 239 230 255 321 332 336 333 337 340 336 338 342 347 356 358 8 18 12 13 18 15 15 19 21 21 18 16 17 15 10 9 8 6 6 4 4 3 359 353 346
188 185 186 191 194 194 196 196 198 197 195 195 197 196 197 201 202 201 205 203 198 200 201 203 206 205 205 209 214 217 218 220 223 226 231 234 242 253 263 271 282 290 274 240 227 208 182 25 346 334 333 334 336 335 334 339 346 354 3 9 21 24 14 15 21 19 23 27 25 22 20 19 19 16 12 10 9 8 9 8 9 10 8 4 355
186 186 188 193 194 193 193 194 196 195 194 195 193 191 194 203 205 204 204 201 197 199 201 203 205 205 205 208 213 216 218 222 225 229 233 236 247 260 267 274 282 278 243 212 201 186 171 325 318 321 325 331 335 338 341 348 355 3 9 21 31 25 13 21 32 32 34 32 26 24 23 22 20 16 13 12 12 12 14 15 15 14 11 11 6
186 187 189 190 191 193 193 194 195 194 192 192 189 190 196 203 206 206 204 200 198 200 202 204 206 207 210 211 213 215 218 223 227 230 232 238 253 263 266 273 275 255 217 194 187 199 228 259 282 309 326 338 351 1 4 1 3 9 16 32 41 33 22 38 47 44 41 34 28 27 25 23 21 17 15 16 17 19 20 19 16 15 13 11 11
184 186 188 186 186 192 196 195 195 191 188 190 192 196 200 202 205 206 202 199 200 201 203 207 208 210 213 212 212 215 218 223 227 230 234 243 255 259 264 271 262 232 205 189 193 211 221 225 254 318 345 18 32 36 26 17 14 22 36 50 55 49 41 51 53 49 45 35 28 27 25 25 24 19 20 21 21 22 20 18 15 14 14 11 10
181 181 185 185 185 191 194 194 192 187 186 191 196 198 199 199 199 200 199 199 200 199 202 206 208 210 212 213 214 216 218 223 227 232 239 247 251 255 262 261 238 214 199 189 196 201 203 206 218 41 60 67 70 78 69 48 38 40 56 66 68 63 55 58 56 50 44 34 26 26 26 29 27 23 24 23 22 21 18 17 15 13 14 13 8
183 181 179 183 186 188 189 190 191 186 184 191 196 196 198 198 196 198 203 205 207 206 207 209 211 213 215 217 219 220 222 226 231 237 242 245 249 254 254 237 214 202 189 181 185 186 183 177 148 123 118 119 119 117 95 69 47 42 61 73 74 68 60 58 54 46 43 36 29 29 30 32 29 25 25 23 21 21 18 17 16 13 13 13 9
186 186 179 180 184 187 186 187 189 187 186 191 196 198 199 200 201 204 208 212 215 216 216 216 216 217 218 220 222 224 227 231 235 239 241 242 245 244 229 210 200 190 179 174 170 166 166 162 151 152 154 149 145 135 106 72 42 39 59 77 78 72 62 55 50 46 46 43 36 34 35 34 30 26 26 25 22 21 19 17 17 16 12 9 7
184 188 185 180 180 184 186 185 188 190 190 191 196 199 199 202 205 208 211 215 218 219 220 220 218 217 218 220 223 227 230 233 234 235 235 234 231 219 205 197 187 173 167 166 160 157 159 158 158 163 163 158 156 143 105 66 45 48 60 73 80 76 64 53 49 48 47 44 39 37 36 33 30 27 27 26 24 21 20 19 18 16 12 5 2
177 181 183 179 179 183 187 187 188 190 191 194 199 201 201 203 206 208 211 215 217 220 221 220 218 217 217 219 223 225 224 223 221 220 218 214 209 203 195 186 175 165 161 158 157 158 156 154 158 163 164 162 158 141 109 81 63 59 60 69 85 85 67 55 50 48 45 41 37 36 36 33 29 28 28 27 26 23 20 20 17 13 9 4 0
175 178 180 179 180 184 187 188 188 190 194 197 199 200 201 203 206 209 213 214 214 217 218 218 218 217 215 213 211 207 203 203 202 201 201 200 199 197 189 176 169 168 165 161 159 156 151 150 157 161 161 162 158 147 126 95 70 64 68 80 95 92 71 58 53 50 46 39 35 34 34 33 29 27 27 27 27 25 21 17 13 8 5 1 358
176 179 181 180 181 184 188 189 190 193 197 198 198 199 201 204 207 209 212 213 212 213 212 213 213 211 207 200 194 192 192 193 193 194 195 196 195 190 184 175 168 166 165 161 157 153 149 151 158 159 160 161 161 153 127 100 79 75 84 97 102 94 74 61 53 48 44 38 35 35 33 32 30 28 27 26 24 22 20 15 8 1 357 355 353
174 178 182 183 184 187 191 193 192 194 198 199 199 200 203 209 213 211 210 211 211 210 208 205 203 199 196 192 189 190 192 192 192 194 194 194 192 187 181 175 164 159 161 157 153 153 153 155 158 159 162 163 159 153 134 112 94 87 97 112 108 92 72 59 51 44 38 34 35 36 34 34 34 31 28 25 21 16 13 10 3 357 353 351 351
175 178 182 185 187 190 192 195 195 195 196 197 198 199 203 211 216 215 213 213 212 210 206 200 196 192 190 187 185 187 192 195 196 197 196 194 192 186 179 173 162 158 162 158 156 159 158 159 160 161 163 164 163 162 148 125 106 100 109 121 113 92 71 56 47 39 31 28 32 36 37 38 39 38 32 26 21 15 8 2 358 355 352 351 351
180 182 184 187 188 190 192 195 195 195 196 198 198 199 204 212 216 215 215 216 214 209 202 195 191 189 187 185 184 188 195 198 197 197 196 194 192 187 181 174 166 164 168 165 162 162 161 162 164 163 166 169 168 165 151 132 120 105 98 103 107 98 75 52 40 33 24 20 26 32 36 39 40 36 29 24 21 15 5 357 355 353 350 350 350
183 185 186 187 187 189 193 195 197 200 202 203 201 202 207 213 216 216 217 216 214 208 201 194 190 189 188 187 189 192 196 197 195 196 195 193 192 191 187 181 175 172 174 171 166 164 162 164 167 168 172 173 168 161 151 140 129 99 77 81 91 97 80 53 31 24 19 16 21 26 28 32 30 23 20 21 17 8 359 355 354 353 349 348 350
185 187 187 189 189 190 194 197 200 204 206 205 203 203 208 212 215 217 215 214 212 207 201 197 195 193 191 192 194 196 196 197 197 198 198 197 197 197 193 186 180 179 177 172 168 168 167 168 170 174 175 170 165 159 152 145 131 106 77 77 85 89 79 52 23 16 14 13 19 24 24 24 19 10 9 11 7 359 357 355 354 354 352 352 352
188 190 190 192 194 194 197 200 204 206 207 208 208 208 211 215 219 219 215 213 211 205 203 204 199 195 195 197 199 201 200 200 201 202 202 201 201 200 194 188 184 181 177 173 171 173 173 171 171 173 172 168 164 157 146 137 132 122 104 92 86 79 64 35 12 10 8 9 18 24 25 24 13 1 359 0 357 354 356 356 355 356 357 356 356
190 192 193 195 196 197 199 203 207 210 212 214 215 214 215 220 223 221 219 216 210 204 208 208 201 198 199 201 203 203 202 201 200 202 203 201 201 198 192 189 188 182 177 176 176 177 177 174 169 170 171 167 160 151 142 138 141 139 124 107 94 73 45 13 1 3 2 5 21 27 22 16 4 354 352 353 352 353 355 356 357 360 1 1 359
192 194 195 195 196 196 199 202 205 209 212 214 214 213 213 217 220 219 218 213 206 208 211 205 201 200 201 202 203 202 201 201 200 201 201 200 201 200 193 189 186 182 179 179 179 179 178 173 167 167 169 165 156 147 142 141 142 139 126 110 99 66 22 355 352 356 356 9 35 38 27 15 1 352 348 347 349 353 355 356 360 3 5 4 3
198 199 197 197 198 199 201 202 204 207 209 211 212 212 213 214 214 214 213 207 206 216 215 205 203 203 202 204 204 201 201 202 202 203 203 203 205 205 199 190 184 182 181 180 179 178 177 173 167 164 165 163 156 148 141 139 137 131 123 112 100 42 350 346 347 347 355 27 41 34 26 18 8 358 349 346 349 355 357 358 1 6 7 7 7
202 203 202 202 203 203 204 204 205 207 211 212 213 213 213 212 210 211 212 208 209 217 215 209 207 204 204 207 204 201 202 204 206 208 208 208 210 208 204 197 189 185 182 179 178 176 174 172 166 159 160 163 159 151 141 136 132 119 103 98 97 214 302 341 346 348 22 45 35 25 18 14 10 2 352 349 352 357 360 359 1 5 6 7 8
202 203 203 203 203 204 205 206 207 208 211 213 215 214 213 212 212 212 211 210 211 214 214 212 209 205 206 207 204 204 207 208 211 214 211 210 212 211 208 202 195 189 184 179 178 175 170 167 163 158 159 164 163 154 143 135 132 122 112 122 202 217 262 329 345 21 55 49 35 24 15 8 6 1 354 353 356 360 0 360 1 3 4 6 7
204 205 204 203 203 204 206 208 209 209 211 213 214 214 213 214 215 214 213 213 213 214 215 214 210 207 205 203 203 207 211 211 213 214 212 213 213 211 208 202 196 192 187 179 178 177 170 165 163 162 161 162 162 155 144 135 129 125 130 154 179 214 247 283 239 83 59 52 41 27 16 8 3 358 354 355 359 0 0 360 360 0 1 4 7
205 206 206 205 205 205 205 207 209 210 212 214 213 212 214 216 216 216 217 217 216 216 217 213 209 207 205 201 203 209 211 212 214 212 211 214 214 211 207 200 192 190 187 181 177 175 172 166 163 164 164 161 158 151 141 132 126 126 134 146 157 177 194 194 186 154 58 51 41 26 16 9 1 356 355 356 358 359 359 359 359 358 360 2 4
208 208 207 205 206 207 208 210 211 211 214 214 210 211 214 215 215 217 219 219 217 218 217 210 207 209 206 199 202 210 212 212 214 213 212 213 212 210 205 197 189 186 184 181 176 174 174 170 164 164 163 160 155 147 138 131 127 130 137 141 149 162 172 181 184 154 60 41 30 19 13 7 0 355 354 355 356 357 358 359 359 358 358 360 1
209 209 208 207 207 208 209 211 212 213 215 214 211 213 214 213 215 219 221 219 217 217 215 209 207 211 207 198 199 208 210 210 213 213 211 208 207 206 201 193 187 185 182 180 176 175 175 172 167 165 162 157 154 147 140 134 132 135 138 140 150 165 171 171 159 108 52 29 20 14 9 4 359 356 355 354 355 358 0 2 2 359 358 359 1
207 207 208 207 207 207 207 209 210 213 215 214 213 215 215 214 217 221 221 219 217 217 214 208 208 210 204 197 199 205 208 210 211 208 203 200 199 198 193 187 184 183 181 178 177 176 176 174 170 165 160 157 155 149 142 139 139 141 143 145 153 166 165 153 129 81 42 27 20 14 9 5 1 360 358 356 357 1 5 6 5 3 2 2 3
206 206 207 207 208 208 208 209 210 211 213 214 216 217 216 215 219 222 221 219 218 216 212 208 209 208 202 198 201 207 210 210 205 199 195 195 195 191 185 182 181 181 181 180 180 179 176 175 172 165 161 159 156 150 146 146 146 146 148 148 152 156 149 132 107 59 38 29 22 17 12 8 6 4 1 358 359 4 8 9 8 7 6 6 7
207 208 208 208 209 209 208 208 210 211 212 214 217 218 218 218 220 221 221 219 215 213 210 209 209 205 200 199 203 209 211 206 199 195 194 194 192 187 181 179 180 182 184 184 183 180 177 176 171 165 163 161 157 154 154 153 152 154 153 151 148 143 132 119 96 60 42 31 24 21 16 11 8 6 3 1 1 6 9 10 9 9 9 10 11
207 207 207 207 207 208 208 208 208 209 211 214 217 219 221 222 222 221 220 218 212 208 209 210 208 204 201 201 204 208 208 203 198 197 197 195 192 186 182 182 182 184 186 187 185 181 178 175 172 167 166 165 163 163 163 161 163 163 157 151 147 143 137 127 106 74 49 33 25 21 15 12 10 7 5 3 1 4 7 8 8 10 12 14 14
208 207 207 206 206 206 207 207 207 208 210 212 216 219 222 222 222 221 219 216 211 208 209 210 207 203 202 204 206 205 203 199 198 197 195 193 190 186 184 185 185 187 189 189 189 186 181 176 173 172 171 171 173 174 171 169 172 169 163 161 162 163 168 172 148 65 44 29 22 18 13 11 11 8 6 4 1 1 4 6 8 10 12 15 16
207 207 206 206 206 206 206 207 207 207 208 211 216 219 220 220 221 222 220 215 210 209 211 210 206 203 205 207 206 204 200 198 197 195 192 190 188 186 188 191 192 193 194 193 192 190 185 178 175 176 178 180 183 182 177 174 178 175 171 176 180 186 194 200 219 308 12 14 13 12 10 8 9 7 6 5 3 3 3 4 6 9 11 14 16
206 207 207 208 209 208 208 207 207 208 209 211 215 219 221 221 221 222 221 217 212 210 211 209 205 205 208 207 203 202 201 197 194 192 190 191 191 192 193 194 195 197 197 196 194 189 181 177 178 181 186 189 190 188 183 184 186 179 178 185 191 196 201 199 206 251 352 3 3 4 3 2 5 6 5 4 4 4 4 3 3 5 7 9 13
206 207 208 210 211 211 211 210 209 210 211 212 215 219 221 221 221 221 220 217 213 210 210 208 206 208 209 205 202 201 200 196 193 191 191 192 194 194 192 190 191 193 194 195 193 186 179 179 182 186 194 198 198 197 196 198 199 192 189 197 204 206 205 197 189 250 3 3 358 356 355 358 1 2 2 1 1 1 1 360 359 0 2 4 8
208 208 208 209 210 212 212 212 212 212 213 214 216 219 220 221 220 219 219 216 214 211 207 206 207 210 208 204 202 201 198 195 194 194 194 193 191 189 188 187 190 192 195 197 199 200 205 204 195 196 205 209 208 207 206 208 211 209 207 213 221 223 220 217 229 278 334 353 354 352 353 356 358 358 357 357 357 358 358 357 356 356 357 359 2